Regional Weather Roundup
Issued by NWS

Home | Current Version | Previous Version | Text Only | Print | Product List | Glossary Off
Versions: 1 2 3 4 5 6 7 8 9 10 11 12 13 14 15 16 17 18 19 20 21 22 23 24 25 26 27 28 29 30 31 32 33 34 35 36 37 38 39 40 41 42 43 44 45 46 47 48 49 50

000
ASUS43 KMPX 260810
RWRMN
WEATHER ROUNDUP FOR MINNESOTA
NATIONAL WEATHER SERVICE TWIN CITIES/CHANHASSEN MN
300 AM CDT WED JUL 26 2017


NOTE: "FAIR" INDICATES FEW OR NO CLOUDS BELOW 12,000 FEET WITH NO
SIGNIFICANT WEATHER AND/OR OBSTRUCTIONS TO VISIBILITY. N/A MEANS
CURRENT SKY AND/OR WEATHER CONDITIONS ARE NOT AVAILABLE.

MNZ060>063-068>070-260900-
   Twin Cities Metro

CITY           SKY/WX    TMP DP  RH WIND       PRES   REMARKS
TWIN CITIES    CLOUDY    76  73  91 SE6       29.95F FOG
ST PAUL        CLOUDY    74  74 100 SE7       29.95F
CRYSTAL        CLOUDY    73  70  90 N6        29.93F FOG
BLAINE         CLOUDY    75  75 100 CALM      29.96F
LAKEVILLE      CLOUDY    73  73 100 S6        29.96F
SOUTH ST PAUL  CLOUDY    74  73  96 CALM      29.95F
LAKE ELMO      DRIZZLE   73  72  94 SE3       29.98S
$$
MNZ001>005-007-008-013>017-022>024-027-028-260900-
   Northwest Minnesota

CITY           SKY/WX    TMP DP  RH WIND       PRES   REMARKS
BEMIDJI        PTCLDY    58  55  91 W5        29.97S
HALLOCK        CLEAR     61  57  88 W3        29.96S
ROSEAU         PTCLDY    63  57  82 SW5       29.96S
WARROAD        CLEAR     61  57  88 SW6       29.96R
THIEF RVR FALL PTCLDY    60  56  86 W8        29.98F
CROOKSTON      MOCLDY    61  57  88 NW5       29.98F
FOSSTON        PTCLDY    54  52  94 CALM      29.99F
DETROIT LAKES  PTCLDY    64  57  77 N5        30.00S
MOORHEAD       CLOUDY    57  55  94 N5        29.98S
PARK RAPIDS    PTCLDY    64  58  80 NW5       29.98R
MAHNOMEN       FAIR      61  56  84 CALM      29.99S
$$
MNZ006-009>011-018-025>026-260900-
   North Central Minnesota

CITY           SKY/WX    TMP DP  RH WIND       PRES   REMARKS
BAUDETTE       PTCLDY    61  57  87 W7        29.94F
FLAG ISLAND    PTCLDY    64  57  77 W9        29.92S
INTL FALLS     PTCLDY    61  56  83 W7        29.93F
WASKISH        PTCLDY    68  61  77 W10       29.95F
BIG FORK       CLEAR     63  59  88 CALM      29.95F
LONGVILLE      CLOUDY    66  63  88 NW3       29.97S
GRAND RAPIDS   MOCLDY    67  65  93 NW6       29.98S
CRANE LAKE     CLEAR     59  55  88 CALM      29.94F
ORR            CLEAR     61  55  82 CALM      29.91F
COOK             N/A     63  61  94 CALM      29.94F
WALKER         FAIR      63  58  83 CALM      29.98S
$$
MNZ012-019>021-037-260900-
   Northeast Minnesota

CITY           SKY/WX    TMP DP  RH WIND       PRES   REMARKS
DULUTH         CLOUDY    70  68  93 NW10      29.92S
ELY            CLEAR     64  63  94 NW5       29.93F
HIBBING        PTCLDY    61  61 100 N6        29.94F FOG
EVELETH        PTCLDY    65  61  87 CALM      29.95F
DULUTH HARBOR  CLOUDY    70  66  88 SW12      29.91S
TWO HARBORS    CLOUDY    73  70  88 NW8       29.86F
SILVER BAY     CLOUDY    72  66  83 NW7       29.85F
GRAND MARAIS     N/A     61  60  97 CALM      29.85F
G MARAIS ARPRT PTCLDY    64  61  88 W3        29.92F
$$
MNZ029>031-032-039>041-046>048-054>057-064-260900-
   West Central Minnesota

CITY           SKY/WX    TMP DP  RH WIND       PRES   REMARKS
FERGUS FALLS   CLOUDY    70  70 100 CALM      29.98S
WHEATON        CLOUDY    72  70  94 CALM      30.01R
MORRIS         CLOUDY    73  72  94 CALM      29.99R
ALEXANDRIA     CLOUDY    71  70  96 W3        30.01R
ELBOW LAKE     FAIR      69  69 100 CALM      30.00R
WADENA         CLOUDY    66  66 100 NW5       29.98F
GLENWOOD       CLOUDY    72  70  94 SW6       30.01R
APPLETON       MOCLDY    72  70  94 CALM      29.97S
BENSON         LGT RAIN  72  68  88 CALM      30.00F
ORTONVILLE     LGT RAIN  73  72  94 MISG      29.97F
MADISON        CLOUDY    73  73 100 CALM      29.98R
WILLMAR        LGT RAIN  70  70 100 CALM      30.02F
$$
MNZ033>034-036-042>043-049>051-058-059-260900-
   Central Minnesota

CITY           SKY/WX    TMP DP  RH WIND       PRES   REMARKS
ST CLOUD       CLOUDY    70  70 100 S3        29.97R
SAUK CENTRE    CLOUDY    69  69  98 CALM      29.99R
PAYNESVILLE    CLOUDY    73  68  84 SW8       30.01R
AITKIN         CLOUDY    70  66  88 CALM      29.96R
PINE RIVER     CLOUDY    66  66 100 NW3       30.00F
BRAINERD       CLOUDY    71  67  87 NW9       29.97S
STAPLES        CLOUDY    66  66 100 N5        29.98S
LONG PRAIRIE   CLOUDY    70  68  94 CALM      29.98S
LITTLE FALLS   CLOUDY    66  64  94 CALM      29.96S
LITCHFIELD     CLOUDY    72  72 100 W13G18    30.02R
BUFFALO        CLOUDY    71  67  87 CALM      29.96F
MAPLE LAKE     CLOUDY    73  70  91 CALM      29.98S
HUTCHINSON     MOCLDY    73  71  91 W10G20    30.00R
$$
MNZ037-044-045-052-053-260900-
   East Central Minnesota

CITY           SKY/WX    TMP DP  RH WIND       PRES   REMARKS
PRINCETON      CLOUDY    72  70  94 CALM      29.97S
MORA           CLOUDY    64  64 100 CALM      29.98R
CAMBRIDGE      CLOUDY    73  66  78 CALM      29.95S
RUSH CITY      HVY RAIN  69  68  96 CALM      29.96S
MOOSE LAKE     PTCLDY    64  63  94 S3        29.93S FOG
HINCKLEY       FAIR      68  68 100 CALM      29.96S
CLOQUET        CLOUDY    72  66  83 W7        29.94F
MCGREGOR       CLOUDY    70  66  88 NW7       29.95F
$$
MNZ071>073-080-081-089-090-097-098-260900-
   Southwest Minnesota

CITY           SKY/WX    TMP DP  RH WIND       PRES   REMARKS
MONTEVIDEO     LGT RAIN  70  64  83 NE3       29.99F
GRANITE FALLS  CLOUDY    73  69  89 N7        30.00F
CANBY          CLOUDY    71  69  92 CALM      30.00R
MARSHALL       LGT RAIN  72  69  90 N10       29.98R
REDWOOD FALLS  CLOUDY    72  68  87 N7        29.96F
OLIVIA         LGT RAIN  70  66  88 N7        29.98F
PIPESTONE      CLOUDY    70  66  88 SE6       29.98R
WINDOM         LGT RAIN  72  66  83 CALM      29.94F
WORTHINGTON    CLOUDY    70  67  90 S3        29.98F
JACKSON        CLOUDY    75  72  88 CALM      29.98F
TRACY          LGT RAIN  71  66  84 W5        29.94F
SLAYTON        RAIN      68  65  90 S3        29.98F
$$
MNZ065>067-074>077-082>085-091>093-260900-
   South Central Minnesota

CITY           SKY/WX    TMP DP  RH WIND       PRES   REMARKS
MANKATO        LGT RAIN  75  73  94 S6        29.94F
NEW ULM        LGT RAIN  73  72  94 NW9       29.95S
ST JAMES         N/A     75  73  94 CALM      29.96F
FAIRMONT       CLOUDY    77  73  87 W7        29.97F
GLENCOE        DRIZZLE   74  74 100 N6        29.94F
FARIBAULT      CLOUDY    75  72  88 SE7       29.95F
OWATONNA       CLOUDY    73  70  88 SE3       29.97F
WASECA         CLOUDY    72  70  94 SE6       29.97F
ALBERT LEA     CLOUDY    75  70  83 S6        29.97F
$$
MNZ078>079-086>088-094>096-260900-
   Southeast Minnesota

CITY           SKY/WX    TMP DP  RH WIND       PRES   REMARKS
ROCHESTER      CLOUDY    72  69  90 S10       29.99F
RED WING       CLOUDY    75  68  78 N6        29.93F
STANTON        CLOUDY    75  70  85 S5        29.95F
DODGE CENTER   CLOUDY    73  70  88 S8        29.99F
WINONA         CLOUDY    73  68  83 CALM      29.99F
AUSTIN         CLOUDY    72  68  88 S3        29.99F
PRESTON        CLOUDY    71  67  85 S10       30.01F
$$
ABBREVIATIONS USED IN REMARKS
   TC - TEMPERATURES IN CELSIUS
  WCI - WIND CHILL INDEX
   HX - HEAT INDEX
  VSB - VISIBILITY
$$



USA.gov is the U.S. government's official web portal to all federal, state and local government web resources and services.